STAR ONE D1

Last updated on Nov. 16, 2019, 4:19 a.m. UTC

1 41904U 16082B   19318.82604778 -.00000197  00000-0  00000-0 0  9997
2 41904   0.0125 334.1938 0001068 235.4853  57.3324  1.00269366 10642
UTC
Height (km)
Latitude
Longitude
Inclination
Orbital Period
UTC large
Height (km)
Speed (km/s)
/
Latitude / Longitude
Inclination (degrees)
Orbital Period (minutes)
Azimuth
Elevation
Range (km)
Doppler Factor
iOS Compass Heading
iOS Angle

Next 30 passes for location: Hong Kong

Rise time Rise Azimuth (degrees) Set time Set Azimuth (degrees) Duration Max altitude (degrees)

No matching passes for this satellites